Location: Newark
(38.1089°N, 103.8675°W)
Time: 05:03:03
(UTC+00:00)

Envisat - Pass Details

Date: 20 December 2019
Orbit: 764 x 766 km, 98.1° (Epoch: 20 January)

Event Time Altitude Azimuth Distance (km) Brightness Sun altitude
Rises 13:30:24 0° 15° (NNE) 3,238 6.1 -7.4°
Reaches altitude 10° 13:32:44 10° 18° (NNE) 2,308 5.4 -6.9°
Maximum altitude 13:37:48 69° 102° (ESE) 818 3.5 -6.0°
Drops below altitude 10° 13:42:50 10° 185° (S) 2,292 5.8 -5.1°
Sets 13:45:09 0° 188° (S) 3,213 6.5 -4.7°
